This demonstration page uses our WeatherBlox Daily Observations layout. Learn more.

Left ArrowRight Arrow

Hourly Observations for March 15, 2015

Temp ( °F °C ) Dew Point ( °F °C ) Humidity (%) Winds ( mph kmh ) Pressure ( in mb ) Visibility ( mi km ) Precip ( " mm )
12:53 am 00:53 undefined 54 12.2 39 3.9 57 57 WSW 18 30 29.67 1005 10 16 N/A
1:53 am 01:53 undefined 50 10 39 3.9 66 66 WSW 17 28 29.69 1006 10 16 N/A
2:53 am 02:53 undefined 46 7.8 38 3.3 73 73 W 13 20 29.75 1007 10 16 N/A
3:53 am 03:53 undefined 42 5.6 36 2.2 79 79 W 8 13 29.79 1009 10 16 N/A
4:53 am 04:53 undefined 41 5 36 2.2 82 82 SW 5 7 29.80 1009 10 16 N/A
5:53 am 05:53 undefined 44 6.7 37 2.8 76 76 WSW 3 6 29.82 1010 10 16 N/A
6:53 am 06:53 undefined 44 6.7 38 3.3 79 79 N N/A 29.83 1010 10 16 N/A
7:53 am 07:53 undefined 42 5.6 37 2.8 82 82 SW 7 11 29.84 1011 10 16 N/A
8:53 am 08:53 undefined 46 7.8 39 3.9 77 77 SSW 9 15 29.84 1011 10 16 N/A
9:53 am 09:53 Partly Cloudy with Light Rain 51 10.6 41 5 69 69 N 8 13 29.85 1011 10 16 N/A
10:53 am 10:53 Partly Cloudy with Rain 47 8.3 44 6.7 90 90 E 9 15 29.88 1012 4 6 0.04 1.02
11:53 am 11:53 Partly Cloudy with Light Rain 50 10 46 7.8 86 86 ESE 8 13 29.87 1011 10 16 0.03 0.76
12:53 pm 12:53 Partly Cloudy with Light Rain 51 10.6 46 7.8 83 83 E 8 13 29.86 1011 10 16 N/A
1:53 pm 13:53 Partly Cloudy with Light Rain 51 10.6 47 8.3 86 86 E 12 19 29.84 1011 10 16 N/A
2:53 pm 14:53 Partly Cloudy with Light Rain 52 11.1 47 8.3 83 83 ESE 8 13 29.84 1011 10 16 N/A
3:53 pm 15:53 undefined 54 12.2 47 8.3 77 77 E 8 13 29.81 1010 10 16 N/A
4:53 pm 16:53 undefined 54 12.2 48 8.9 80 80 ENE 8 13 29.78 1008 10 16 N/A
5:53 pm 17:53 undefined 54 12.2 48 8.9 80 80 NE 5 7 29.76 1008 10 16 N/A
6:53 pm 18:53 undefined 51 10.6 47 8.3 86 86 SE 3 6 29.77 1008 10 16 N/A
7:53 pm 19:53 undefined 49 9.4 46 7.8 90 90 N N/A 29.76 1008 10 16 N/A
8:53 pm 20:53 undefined 48 8.9 44 6.7 86 86 SSW 6 9 29.79 1009 10 16 N/A
9:53 pm 21:53 Mostly Clear with Light Rain 50 10 43 6.1 77 77 undefined N/A 29.79 1009 10 16 N/A
10:53 pm 22:53 undefined 52 11.1 43 6.1 72 72 WSW 9 15 29.77 1008 10 16 0.01 0.25
11:35 pm 23:35 undefined 54 12.2 41 5 62 62 W 13 20 29.74 1007 10 16 N/A
11:53 pm 23:53 undefined 50 10 41 5 71 71 W 7 11 29.78 1008 10 16 N/A

Powered by AerisWeather